[[{"header":{"parameterUnit":"m.s-1","parameterCategory":1,"la1":30.2992,"la2":30.254,"lo1":-89.0895,"lo2":-89.0443,"dy":0.0025,"dx":0.0025,"nx":19,"ny":19,"refTime":"2026-05-22T21:00:00:Z","depth":0,"parameterNumber":2,"parameterNumberName":"U-component_of_WINDS"},"data":[0,0,0,-2.3834,-2.3838,-2.4,-2.4001,-2.4199,-2.42,0,0,0,0,0,0,0,0,0,0,0,-2.3777,-2.3778,-2.3834,-2.3838,-2.4,-2.4001,-2.4198,-2.42,0,0,0,0,0,0,0,0,0,0,0,-2.3777,-2.3778,-2.3779,-2.3838,-2.4,-2.4001,-2.4198,-2.408,0,0,0,0,0,0,0,0,0,0,-2.3924,-2.3862,-2.3778,-2.3779,-2.3839,-2.4,-2.4001,-2.4074,-2.4087,-2.4119,0,-2.4143,0,-2.4175,-2.4212,-2.4213,0,0,0,-2.3846,-2.3851,-2.3902,-2.3779,-2.3841,-2.4,-2.3929,-2.4081,-2.4096,-2.4136,-2.4146,-2.4154,-2.4178,-2.4214,-2.4214,-2.4368,-2.4368,0,0,-2.3837,-2.3802,-2.3892,-2.3911,-2.3882,-2.3924,-2.3934,-2.409,-2.41,-2.4147,-2.4159,-2.4181,-2.4215,-2.4216,-2.4368,-2.4368,0,0,0,-2.3806,-2.3796,-2.3844,-2.3903,-2.3932,-2.3928,-2.394,-2.4093,-2.4112,-2.4161,-2.4183,-2.4216,-2.4218,-2.4367,-2.4368,-2.4349,0,0,0,-2.3801,-2.3778,-2.384,-2.382,-2.3929,-2.4014,-2.3939,-2.4101,-2.412,-2.4182,-2.4216,-2.422,-2.4367,-2.4368,-2.4349,-2.4346,0,0,0,-2.377,-2.3774,-2.3794,-2.3818,-2.3886,-2.4013,-2.404,-2.4106,-2.4133,-2.4213,-2.422,-2.4367,-2.4368,-2.4348,-2.4346,-2.4374,0,0,0,-2.3728,-2.3779,-2.3793,-2.3859,-2.3885,-2.3999,-2.404,-2.4128,-2.4195,-2.4217,-2.4367,-2.4368,-2.4348,-2.4346,-2.4373,-2.439,-2.4394,0,0,-2.3773,-2.3783,-2.3824,-2.3842,-2.3944,-2.3977,-2.4079,-2.4174,-2.4216,-2.4316,-2.432,-2.4349,-2.4346,-2.4374,-2.4432,-2.4435,0,0,0,-2.3827,-2.3855,-2.389,-2.395,-2.4022,-2.4083,-2.4167,-2.4202,-2.4288,-2.4259,-2.4369,-2.4368,-2.4386,-2.4396,-2.4398,-2.4415,-2.4371,-2.4371,-2.4371,-2.3841,-2.3887,-2.3958,-2.4023,-2.4081,-2.4165,-2.4217,-2.428,-2.4314,-2.4338,-2.4368,-2.4397,-2.4406,-2.4408,-2.4426,-2.4382,-2.4382,-2.4382,-2.4382,-2.3909,-2.3955,-2.3995,-2.4077,-2.4127,-2.4198,-2.4282,-2.4303,-2.4377,-2.4379,-2.4398,-2.4393,-2.441,-2.4427,-2.4381,-2.4381,-2.4381,-2.4381,-2.4382,-2.3921,-2.3951,-2.3991,-2.4081,-2.4146,-2.4213,-2.428,-2.4326,-2.4369,-2.4387,-2.4422,-2.4422,-2.4426,-2.4401,-2.4401,-2.4401,-2.4401,-2.4401,-2.4401,-2.3917,-2.3962,-2.4012,-2.4091,-2.4134,-2.4197,-2.4282,-2.4327,-2.4389,-2.4416,-2.4417,-2.4446,-2.4403,-2.439,-2.4403,-2.4402,-2.4402,-2.4402,-2.4402,-2.3964,-2.396,-2.4037,-2.4079,-2.4175,-2.4236,-2.4292,-2.4379,-2.4424,-2.4456,-2.4482,-2.4443,-2.4458,-2.4456,-2.4445,-2.4472,-2.4472,-2.4472,-2.4472,-2.3972,-2.3984,-2.4071,-2.4136,-2.4206,-2.4263,-2.435,-2.4417,-2.4486,-2.4517,-2.452,-2.451,-2.4507,-2.4524,-2.4521,-2.4511,-2.4554,-2.4554,-2.4554,-2.4003,-2.4023,-2.4086,-2.415,-2.4228,-2.4294,-2.4377,-2.4453,-2.4531,-2.4559,-2.4541,-2.4538,-2.4523,-2.4516,-2.4541,-2.4535,-2.4519,0,0]},{"header":{"parameterUnit":"m.s-1","parameterCategory":1,"la1":30.2992,"la2":30.254,"lo1":-89.0895,"lo2":-89.0443,"dy":0.0025,"dx":0.0025,"nx":19,"ny":19,"refTime":"2026-05-22T21:00:00:Z","depth":0,"parameterNumber":3,"parameterNumberName":"V-component_of_WINDS"},"data":[0,0,0,4.6495,4.6502,4.687,4.6871,4.7306,4.731,0,0,0,0,0,0,0,0,0,0,0,4.6366,4.6368,4.6495,4.6503,4.687,4.6871,4.7305,4.731,0,0,0,0,0,0,0,0,0,0,0,4.6365,4.6368,4.637,4.6505,4.6869,4.6872,4.7305,4.704,0,0,0,0,0,0,0,0,0,0,4.669,4.655,4.6367,4.6371,4.6507,4.6869,4.6872,4.7028,4.7057,4.7125,0,4.7181,0,4.7252,4.7337,4.7338,0,0,0,4.6519,4.6526,4.6644,4.6371,4.651,4.6868,4.6709,4.7044,4.7077,4.7163,4.7188,4.7205,4.7259,4.7339,4.7341,4.7688,4.7688,0,0,4.6498,4.6421,4.6621,4.6664,4.6605,4.6697,4.672,4.7064,4.7086,4.7189,4.7216,4.7266,4.7342,4.7345,4.7687,4.7688,0,0,0,4.643,4.6406,4.6516,4.6645,4.6713,4.6707,4.6734,4.7071,4.7113,4.7221,4.7272,4.7344,4.7349,4.7686,4.7687,4.7658,0,0,0,4.6418,4.6366,4.6506,4.6463,4.6706,4.6897,4.6731,4.7089,4.7131,4.7269,4.7344,4.7353,4.7685,4.7687,4.7657,4.7657,0,0,0,4.6349,4.6359,4.6404,4.6458,4.6613,4.6893,4.6956,4.71,4.7161,4.7338,4.7354,4.7685,4.7686,4.7656,4.7656,4.7727,0,0,0,4.6253,4.6372,4.6402,4.6556,4.6609,4.6871,4.6954,4.7154,4.7302,4.7346,4.7685,4.7687,4.7655,4.7655,4.7725,4.7773,4.7786,0,0,4.6361,4.6382,4.6479,4.6517,4.6754,4.6822,4.7056,4.7265,4.7352,4.757,4.758,4.7657,4.7655,4.7726,4.7881,4.789,0,0,0,4.6487,4.6555,4.6635,4.6773,4.6935,4.7075,4.7256,4.7333,4.7523,4.7448,4.7704,4.7705,4.775,4.7777,4.7785,4.7828,4.7696,4.7696,4.7695,4.6529,4.6635,4.6801,4.6951,4.7083,4.7269,4.7386,4.7522,4.759,4.7648,4.7714,4.7795,4.7823,4.783,4.7874,4.7747,4.7747,4.7747,4.7747,4.6698,4.6812,4.6898,4.7091,4.7201,4.7365,4.7548,4.759,4.7758,4.7753,4.7798,4.7785,4.7837,4.7881,4.7746,4.7746,4.7746,4.7746,4.7746,4.6739,4.6812,4.6904,4.7114,4.7264,4.7411,4.7569,4.7663,4.7753,4.7797,4.7878,4.7879,4.7893,4.7829,4.7829,4.783,4.783,4.783,4.783,4.6746,4.6851,4.6972,4.7154,4.7255,4.74,4.7587,4.7689,4.7826,4.7883,4.7884,4.7945,4.7822,4.7789,4.7835,4.7834,4.7834,4.7833,4.7833,4.6881,4.6866,4.7052,4.7154,4.7375,4.7518,4.7636,4.7836,4.7934,4.8009,4.8061,4.7953,4.7982,4.7977,4.7951,4.8037,4.8037,4.8037,4.8037,4.6917,4.6941,4.7154,4.7309,4.7472,4.7598,4.7806,4.7952,4.81,4.8168,4.8168,4.8141,4.8131,4.8167,4.8157,4.8135,4.8265,4.8266,4.8266,4.7007,4.7051,4.721,4.7355,4.7535,4.7687,4.7886,4.8061,4.8226,4.8277,4.8223,4.8213,4.817,4.8151,4.8201,4.8184,4.8145,0,0]}]]